Tracking 31027 objects as of 19-Jul-2025
HD Live streaming from Space Station
objects crossing your sky now

STARLINK-6050

Track STARLINK-6050 now!
10-day predictions
STARLINK-6050 is classified as:


NORAD ID: 56458
Int'l Code: 2023-064L
Perigee: 577.0 km
Apogee: 581.3 km
Inclination: 70.0 °
Period: 96.1 minutes
Semi major axis: 6950 km
RCS: Unknown
Launch date: May 10, 2023
Source: United States (US)
Launch site: AIR FORCE WESTERN TEST RANGE (AFWTR)
Your satellite tracking list
THORAD DELTA 1 DEB
Track 1 satellite(s)




NASA's NSSDC Master Catalog

Two Line Element Set (TLE):
1 56458U 23064L   25199.82492787  .00000424  00000-0  43353-4 0  9998
2 56458  69.9998  14.1810 0003098 267.8717  92.2088 14.98330445120578
Source of the keplerian elements: AFSPC